Flag for U.S.A. Weather past 2 weeks in New Bedford, Massachusetts, U.S.A.

54 °F

Mostly cloudy.

Feels Like: 50 °F
Forecast: 51 / 58 °F
Wind: 16 mph from Northeast

Location: New Bedford Regional Airport

Current Time: Oct 4, 2015 at 1:32:37 AM

Latest Report: Oct 4, 2015 at 12:53 AM

Visibility: 10 mi

Pressure: 30.38 "Hg

Humidity: 69%

Dew point: 44 °F

Location of New BedfordLocation

Historic Weather in New Bedford — Graph


New Bedford temperature yesterday

Maximum temperature yesterday: 54 °F (at 6:53 PM)
Minimum temperature yesterday: 51 °F (at 3:53 AM)
Average temperature yesterday: 53 °F

Past Weeks' High & Low Weather Summary

High80 °F (Sep 19, 2:53 PM)100% (Sep 18, 11:53 PM)30.50 "Hg (Sep 18, 11:53 PM)
Low39 °F (Sep 27, 6:53 AM)31% (Sep 23, 1:53 PM)29.69 "Hg (Sep 30, 3:00 PM)
Average61 °F82%30.18 "Hg
* Reported Sep 18 11:53 PM — Oct 3 11:53 PM, New Bedford, Weather by CustomWeather, © 2015

Note: Actual official high and low records may vary slightly from our data, if they occured in-between our weather recording intervals... More about our weather records


New Bedford weather history for previous 24 hours

Time TempWeatherWind HumidityBarometerVisibility
11:53 PM
Sat, Oct 3
54 °FMostly cloudy.16 mph69%30.39 "Hg10 mi
10:53 PM54 °FMostly cloudy.18 mph72%30.39 "Hg10 mi
9:53 PM54 °FMostly cloudy.16 mph74%30.38 "Hg10 mi
8:53 PM54 °FOvercast.15 mph74%30.37 "Hg10 mi
7:53 PM54 °FOvercast.17 mph77%30.38 "Hg10 mi
6:53 PM54 °FMore clouds than sun.14 mph77%30.37 "Hg10 mi
5:53 PM53 °FMore clouds than sun.18 mph80%30.37 "Hg10 mi
4:53 PM53 °FMostly cloudy.17 mph80%30.37 "Hg10 mi
3:53 PM53 °FMostly cloudy.17 mph77%30.36 "Hg10 mi
2:53 PM53 °FOvercast.16 mph77%30.34 "Hg10 mi
1:53 PM53 °FLight rain. Mostly cloudy.16 mph80%30.34 "Hg10 mi
12:53 PM52 °FLight rain. Mostly cloudy.15 mph86%30.36 "Hg9 mi
11:53 AM52 °FMostly cloudy.15 mph89%30.35 "Hg10 mi
10:53 AM52 °FLight rain. Mostly cloudy.16 mph89%30.35 "Hg7 mi
10:04 AM53 °FCloudy.14 mph83%30.35 "Hg10 mi
8:53 AM51 °FLight rain. Overcast.13 mph92%30.34 "Hg7 mi
7:53 AM51 °FLight rain. Mostly cloudy.17 mph96%30.32 "Hg10 mi
6:53 AM51 °FLight rain. Low clouds.14 mph96%30.30 "Hg10 mi
5:53 AM51 °FLight rain. Fog.12 mph96%30.29 "Hg5 mi
3:53 AM51 °FLight rain. Overcast.13 mph92%30.27 "Hg7 mi
Weather by CustomWeather, © 2015

See weather overviewHow to use our weather pages